Location: Grand Mazuras
(45.9128°N, 1.7636°E)
Time: 04:22:39
(UTC+00:00)

NOSS 3-1 (C) - Pass Details

Date: 18 April 2021
Orbit: 732 x 1476 km, 63.4° (Epoch: 18 April)

Event Time Altitude Azimuth Distance (km) Brightness Sun altitude
Rises 22:17:09 0° 321° (NW) 3,894 7.8 -29.1°
Reaches altitude 10° 22:19:40 10° 323° (NW) 3,035 7.0 -29.3°
Maximum altitude 22:27:06 75° 49° (NE) 1,332 4.1 -29.8°
Enters shadow 22:28:43 60° 112° (ESE) 1,488 4.1 -29.9°
